Minneapolis Flying Cloud, MN

5:38 AM CST on November 12, 2019 (GMT -0600)
Flying Cloud

Weather History for KFCM - September, 2019

Change the Weather History Date:

Wednesday, September 18, 2019

  Actual Average Record
Temperature  
Mean Temperature 76 °F -  
Max Temperature 81 °F 70 °F 91 °F (1998)
Min Temperature 68 °F 49 °F 42 °F (2012)
Cooling Degree Days 10    
Growing Degree Days 26 (Base 50)    
Moisture  
Dew Point 66 °F    
Average Humidity 77    
Maximum Humidity 91    
Minimum Humidity 62    
Precipitation  
Precipitation 0.15 in - - ()
Sea Level Pressure  
Sea Level Pressure 29.87 in    
Wind  
Wind Speed 12 mph (South)    
Max Wind Speed 23 mph    
Max Gust Speed 39 mph    
Visibility 9 miles    
Events Rain , Thunderstorm    
Averages and records for this station are not official NWS values.
T = Trace of Precipitation, MM = Missing Value Source: NWS Daily Summary

Daily Weather History Graph

Daily Weather History Graph

Search for Another Location

Airport or City:

Astronomy

Sep. 18, 2019 Rise Set
Actual Time 6:55 AM CDT 7:19 PM CDT
Civil Twilight 6:26 AM CDT 7:48 PM CDT
Nautical Twilight 5:51 AM CDT 8:23 PM CDT
Astronomical Twilight 5:16 AM CDT 8:58 PM CDT
Moon 9:43 PM CDT (9/18) 11:09 AM CDT (9/18)
Length of Visible Light 13h 21m
Length of Day
12h 23m
Waning Gibbous, 82% of the Moon is Illuminated
Sep 18
Waning Gibbous
Sep 21
Last Quarter
Sep 28
New
Oct 5
First Quarter
Oct 13
Full

Hourly Weather History & Observations

Time (CDT) Temp. Heat Index Dew Point Humidity Pressure Visibility Wind Dir Wind Speed Gust Speed Precip Events Conditions
12:53 AM 73.9 °F - 66.9 °F 79% 29.88 in 10.0 mi SSE 9.2 mph - N/A   Clear
1:53 AM 73.0 °F - 66.9 °F 81% 29.87 in 10.0 mi SSE 9.2 mph - N/A   Clear
2:53 AM 73.9 °F - 66.9 °F 79% 29.83 in 10.0 mi SSE 11.5 mph 24.2 mph N/A   Partly Cloudy
3:53 AM 73.9 °F - 66.0 °F 76% 29.81 in 10.0 mi South 13.8 mph 28.8 mph N/A   Clear
4:53 AM 73.9 °F - 66.9 °F 79% 29.82 in 10.0 mi South 12.7 mph 21.9 mph 0.00 in   Scattered Clouds
5:53 AM 72.0 °F - 66.9 °F 84% 29.87 in 5.0 mi SSW 9.2 mph - 0.02 in Rain Rain
6:07 AM 72.0 °F - 68.0 °F 87% 29.89 in 5.0 mi SSW 11.5 mph 20.7 mph 0.02 in Rain , Thunderstorm Light Rain
6:53 AM 72.0 °F - 69.1 °F 91% 29.85 in 6.0 mi SSE 13.8 mph 20.7 mph 0.12 in Rain Light Rain
7:23 AM 72.0 °F - 68.0 °F 87% 29.86 in 10.0 mi South 9.2 mph - 0.00 in Rain Light Rain
7:46 AM 72.0 °F - 68.0 °F 87% 29.87 in 6.0 mi South 17.3 mph 27.6 mph 0.01 in Rain Light Rain
7:53 AM 72.0 °F - 68.0 °F 87% 29.87 in 10.0 mi South 15.0 mph 23.0 mph 0.01 in Rain Light Rain
8:09 AM 71.1 °F - 68.0 °F 90% 29.88 in 9.0 mi South 13.8 mph 21.9 mph 0.00 in   Scattered Clouds
8:53 AM 71.1 °F - 66.0 °F 84% 29.87 in 10.0 mi SSE 13.8 mph 26.5 mph 0.00 in   Mostly Cloudy
9:53 AM 71.1 °F - 64.9 °F 81% 29.87 in 10.0 mi SSE 19.6 mph 32.2 mph N/A   Overcast
10:53 AM 72.0 °F - 66.0 °F 81% 29.87 in 10.0 mi South 19.6 mph 28.8 mph N/A   Mostly Cloudy
11:53 AM 72.0 °F - 63.0 °F 73% 29.88 in 10.0 mi South 16.1 mph - N/A   Overcast
12:53 PM 78.1 °F - 66.0 °F 66% 29.86 in 10.0 mi South 20.7 mph 34.5 mph N/A   Mostly Cloudy
1:53 PM 79.0 °F - 66.9 °F 66% 29.84 in 10.0 mi SSW 18.4 mph 33.4 mph N/A   Scattered Clouds
2:12 PM 79.0 °F - 66.9 °F 66% 29.85 in 10.0 mi SSW 20.7 mph 35.7 mph N/A   Overcast
2:53 PM 81.0 °F 83.3 °F 66.9 °F 62% 29.83 in 10.0 mi SSW 23.0 mph 39.1 mph N/A   Overcast
3:53 PM 79.0 °F - 68.0 °F 69% 29.83 in 10.0 mi SSW 15.0 mph 28.8 mph N/A   Overcast
4:53 PM 81.0 °F 83.8 °F 68.0 °F 65% 29.83 in 10.0 mi SSW 20.7 mph 31.1 mph N/A   Mostly Cloudy
5:53 PM 80.1 °F 82.9 °F 69.1 °F 69% 29.84 in 10.0 mi SSW 13.8 mph 23.0 mph N/A   Partly Cloudy
6:53 PM 79.0 °F - 70.0 °F 74% 29.86 in 10.0 mi SW 9.2 mph - N/A   Clear
7:53 PM 75.0 °F - 64.9 °F 71% 29.88 in 10.0 mi SW 5.8 mph - N/A   Clear
8:53 PM 73.0 °F - 62.1 °F 68% 29.90 in 10.0 mi SW 6.9 mph - N/A   Clear
9:53 PM 70.0 °F - 62.1 °F 76% 29.92 in 10.0 mi SSW 5.8 mph - N/A   Clear
10:53 PM 70.0 °F - 61.0 °F 73% 29.93 in 10.0 mi West 4.6 mph - N/A   Clear
11:53 PM 68.0 °F - 61.0 °F 78% 29.94 in 10.0 mi Calm Calm - N/A   Clear